GW3608 Weather Reports


Display with metric or nautical units.
time (UTC)temp
F
wind
direction
speed
MPH
gust
MPH
rain 1hr
in
rain 24hr
in
rain mn
in
humidity
%
barometer
mb
20260504200018 70 274 2.0 7.0 0.00 0.00 0.00 36 1007.0
20260504194529 68 238 0.0 10.0 0.00 0.00 0.00 38 1007.4
20260504193022 67 150 1.0 6.0 0.00 0.00 0.00 41 1007.4
20260504191532 68 178 1.0 11.0 0.00 0.00 0.00 38 1007.6
20260504190024 69 161 1.0 7.0 0.00 0.00 0.00 39 1007.6
20260504184522 69 242 2.0 8.0 0.00 0.00 0.00 39 1007.7
20260504183022 69 236 2.0 10.0 0.00 0.00 0.00 37 1007.8
20260504181524 67 202 0.0 5.0 0.00 0.00 0.00 41 1007.9
20260504180022 66 253 1.0 5.0 0.00 0.00 0.00 45 1008.1
20260504174524 67 178 3.0 8.0 0.00 0.00 0.00 39 1008.1
20260504173022 67 239 2.0 7.0 0.00 0.00 0.00 45 1008.5
20260504171530 66 73 2.0 7.0 0.00 0.00 0.00 42 1008.3
20260504081514 44 146 0.0 1.0 0.00 0.00 0.00 62 1010.9
20260504044526 41 9 0.0 0.0 0.00 0.00 0.00 73 1011.0
20260504043017 42 9 0.0 0.0 0.00 0.00 0.00 70 1011.0
20260504041522 44 9 0.0 0.0 0.00 0.00 0.00 67 1011.1
20260504040039 45 9 0.0 0.0 0.00 0.00 0.00 65 1011.0
20260504034525 45 9 0.0 0.0 0.00 0.00 0.00 67 1011.1
20260504033026 46 9 0.0 0.0 0.00 0.00 0.00 66 1011.1
20260504031523 47 9 0.0 0.0 0.00 0.00 0.00 60 1011.1
20260504030025 46 9 0.0 1.0 0.00 0.00 0.00 64 1011.2
20260504024526 47 9 0.0 0.0 0.00 0.00 0.00 66 1011.2
20260504023030 48 35 0.0 0.0 0.00 0.00 0.00 58 1011.3
20260504021528 48 35 0.0 0.0 0.00 0.00 0.00 57 1011.4
20260504020026 48 35 0.0 0.0 0.00 0.00 0.00 58 1011.4
20260504014527 48 5 0.0 0.0 0.00 0.00 0.00 55 1011.3
20260504013009 49 5 0.0 1.0 0.00 0.00 0.00 51 1011.1
20260504011513 49 341 0.0 1.0 0.00 0.00 0.00 49 1011.2
20260504010020 50 24 0.0 2.0 0.00 0.00 0.00 48 1011.1
20260504004533 51 269 0.0 2.0 0.00 0.00 0.00 47 1011.0
20260504003026 52 275 0.0 4.0 0.00 0.00 0.00 45 1010.8
20260504001514 51 247 0.0 2.0 0.00 0.00 0.00 47 1010.6
20260504000015 51 240 0.0 1.0 0.00 0.00 0.00 47 1010.4
20260503234523 51 242 0.0 3.0 0.00 0.00 0.00 46 1010.3
20260503233023 52 234 0.0 2.0 0.00 0.00 0.00 46 1010.2
20260503231526 51 170 0.0 0.0 0.00 0.00 0.00 48 1010.2
20260503230016 52 221 0.0 1.0 0.00 0.00 0.00 47 1010.2
20260503224517 52 235 0.0 3.0 0.00 0.00 0.00 46 1010.3
20260503223026 52 250 0.0 3.0 0.00 0.00 0.00 46 1010.4
20260503221510 52 267 1.0 5.0 0.00 0.00 0.00 44 1010.3
20260503220013 53 310 1.0 5.0 0.00 0.00 0.00 44 1010.5
20260503214518 51 298 0.0 3.0 0.00 0.00 0.00 47 1010.6
20260503213021 51 252 1.0 3.0 0.00 0.00 0.00 48 1010.7
20260503211523 52 55 1.0 9.0 0.00 0.00 0.00 46 1010.6
20260503210008 51 46 2.0 10.0 0.00 0.00 0.00 49 1010.7
20260503204520 52 241 3.0 10.0 0.00 0.00 0.00 45 1010.6
20260503203020 52 219 3.0 9.0 0.00 0.00 0.00 43 1010.5
20260503201521 53 294 1.0 10.0 0.00 0.00 0.00 45 1010.4